Location: Observatory
(52.1446°N, 0.4624°W)
Time: 22:37:55
(UTC+00:00)

ISS - Pass Details

Date: 11 January 2018
Orbit: 402 x 407 km, 51.6° (Epoch: 22 January)

Event Time Altitude Azimuth Distance (km) Brightness Sun altitude
Exits shadow 04:41:09 12° 101° (E) 1,332 -0.4 -30.5°
Drops below altitude 10° 04:41:29 10° 100° (E) 1,468 -0.2 -30.5°
Sets 04:43:34 0° 100° (E) 2,328 1.1 -30.2°
